星链-11412 (STARLINK-11412)

导读 | 豆包AI

STARLINK-11412是美国于2025年2月21日发射的星链系列卫星,隶属于SpaceX公司打造的星链星座系统。该卫星旨在为全球范围内用户提供低延迟、高速率的宽带互联网服务,尤其覆盖偏远地区与网络基础设施匮乏区域,进一步扩充星链星座在轨卫星规模,巩固美国在低轨卫星互联网领域的部署优势。

基本信息
目录编号:
63062
目录名称:
STARLINK-11412
国际标识:
2025-035L
轨道中心:
EARTH
卫星名称:
星链-11412
卫星全名:
星链-11412 (STARLINK-11412)
卫星状态:
在轨 (已飞行433 天)
发射日期:
2025-02-21 UTC
国别 :
美国 (US)
星等 :
--
轨道信息
数据来源 国际轨道数据
星历时间: 2026-04-29T21:47:26+0800
16小时前
查看轨道信息
半长轴: 6734.456km
偏心率: 0.0000727
轨道倾角: 43.002°
近地点辐角 288.048°
升交点赤经 68.627°
平近点角 72.031°
近地点: 355.829km
远地点: 356.809km
周期: 91.667分钟
每日圈数: 15.709018
详细信息
固有亮度:
5
最大亮度:
2.5
卫星平台:
Starlink V1.0
覆盖范围:
全球
运营商:
太空探索技术公司
运营商所在国:
美国
制造商(研发单位):
太空探索技术公司
制造商所在国:
美国
使用方式:
暂无
卫星简介
Starlink 计划是 SpaceX 推出的全球卫星互联网项目,通过发射低轨道卫星,为全球尤其是偏远地区提供高速、低延迟的互联网服务。自 2019 年起,Starlink 已部署数千颗卫星,旨在缩小全球数字鸿沟,推动互联网普及。该项目还为军事、航空等行业提供通信支持,带来广泛经济效益。
2D轨道图
3D轨道图
轨道高度分析图
轨道倾角分析图
轨道综合分析图
查看轨道综合分析图